TARTU/ULENURME current weather conditions

sailwx.info

Wind from 140 at 9 knots

Air temperature 1.0° C
Dewpoint -9.0° C

Last reported at 2014-Oct-24 13:50 UTC.
Time now 2014-Oct-24 16:20 UTC

Location: N 58°18' E 026°44'.
View on Google Maps.

See reports from other nearby stations

  
Tides and Currents Weather Stations Pressure Air Temp Water Temp Dewpoint Dewpoint Depression Visibility Wind Speed Wind Dir Waves Ship Positions
date/time (UTC)wind fromknots sea level pressurealtimeterstation pressurevisibilityair tempwater tempwave heightnotes
2014-Oct-24 14:50 130 8 -0.0
2014-Oct-24 13:50 140 9 1.0
2014-Oct-24 12:50 140 9 1.0
2014-Oct-24 11:50 140 10 1.0
2014-Oct-24 10:50 150 10 -0.0
2014-Oct-24 09:50 160 9 -1.0
2014-Oct-24 08:50 160 9 -3.0
2014-Oct-24 07:50 130 7 -5.0
2014-Oct-24 06:50 130 6 -7.0
2014-Oct-24 05:50 130 4 -8.0
2014-Oct-24 04:50 130 4 -8.0
2014-Oct-24 03:50 140 5 -8.0
2014-Oct-24 02:50 130 5 5.4-8.0
2014-Oct-24 01:50 130 5 5.4-8.0
2014-Oct-24 00:50 130 7 5.4-7.0
2014-Oct-23 23:50 130 6 5.4-7.0
2014-Oct-23 22:50 120 7 5.4-7.0
2014-Oct-23 21:50 110 6 -7.0
2014-Oct-23 20:50 110 5 -7.0
2014-Oct-23 19:50 100 6 -8.0
2014-Oct-23 18:50 110 7 -8.0
2014-Oct-23 17:50 090 3 -7.0
2014-Oct-23 16:50 090 5 -7.0
2014-Oct-23 15:50 120 5 -5.0
2014-Oct-23 14:50 110 6 -5.0
2014-Oct-23 13:50 100 9 -3.0
2014-Oct-23 12:50 080 9 -3.0
2014-Oct-23 11:50 080 6 -3.0
2014-Oct-23 10:50 080 8 -4.0
2014-Oct-23 09:50 090 10 -4.0
2014-Oct-23 08:50 100 12 -5.0
2014-Oct-23 07:50 090 13 5.4-5.0
2014-Oct-23 06:50 100 11 5.4-7.0
2014-Oct-23 05:50 090 10 5.4-8.0
2014-Oct-23 04:50 090 10 5.4-8.0
2014-Oct-23 03:50 090 8 5.4-7.0
2014-Oct-23 02:50 080 5 5.4-8.0
2014-Oct-23 01:50 060 5 5.4-7.0
2014-Oct-23 00:50 070 4 5.4-7.0
2014-Oct-22 23:50 090 5 5.4-6.0
2014-Oct-22 22:50 080 8 5.4-5.0
2014-Oct-22 21:50 090 7 5.4-5.0
2014-Oct-22 20:50 110 11 5.4-3.0
2014-Oct-22 19:50 100 11 5.4-3.0
2014-Oct-22 18:50 080 10 5.4-3.0
2014-Oct-22 17:50 070 7 5.4-3.0
2014-Oct-22 16:50 060 6 5.4-3.0